| time (UTC) | temp C | wind direction | speed KPH | gust KPH | rain 1hr cm | rain 24hr cm | rain mn cm | humidity % | barometer mb |
| 20260504081545 | 2 | 255 | 6.4 | 25.7 | 0.13 | 1.12 | 0.53 | 96 | 978.0 |
| 20260504050014 | 5 | 325 | 0.0 | 6.4 | 0.03 | 0.61 | 0.03 | 92 | 974.9 |
| 20260504044522 | 5 | 18 | 0.0 | 8.0 | 0.00 | 0.58 | 0.00 | 91 | 975.1 |
| 20260504043015 | 5 | 111 | 0.0 | 14.5 | 0.00 | 0.58 | 0.00 | 90 | 975.3 |
| 20260504041608 | 5 | 113 | 3.2 | 19.3 | 0.00 | 0.58 | 0.00 | 90 | 975.4 |
| 20260504040006 | 5 | 67 | 4.8 | 20.9 | 0.00 | 0.58 | 0.00 | 89 | 976.1 |
| 20260504034504 | 5 | 79 | 3.2 | 17.7 | 0.00 | 0.58 | 0.00 | 89 | 976.4 |
| 20260504033100 | 5 | 103 | 14.5 | 30.6 | 0.00 | 0.58 | 0.00 | 89 | 976.6 |
| 20260504031557 | 6 | 153 | 12.9 | 27.4 | 0.00 | 0.58 | 0.00 | 90 | 976.9 |
| 20260504030053 | 6 | 119 | 20.9 | 32.2 | 0.00 | 0.58 | 0.58 | 90 | 977.4 |
| 20260504024551 | 6 | 101 | 8.0 | 25.7 | 0.00 | 0.58 | 0.58 | 89 | 978.0 |
| 20260504023051 | 6 | 82 | 17.7 | 38.6 | 0.00 | 0.58 | 0.58 | 89 | 978.1 |
| 20260504021548 | 6 | 81 | 24.1 | 41.8 | 0.00 | 0.58 | 0.58 | 89 | 978.6 |
| 20260504020044 | 5 | 100 | 17.7 | 37.0 | 0.00 | 0.58 | 0.58 | 89 | 979.4 |
| 20260504014553 | 5 | 86 | 19.3 | 46.7 | 0.00 | 0.58 | 0.58 | 89 | 980.5 |
| 20260504013038 | 5 | 94 | 25.7 | 49.9 | 0.00 | 0.58 | 0.58 | 89 | 981.4 |
| 20260504011535 | 5 | 56 | 16.1 | 29.0 | 0.00 | 0.58 | 0.58 | 89 | 982.6 |
| 20260504010033 | 6 | 49 | 19.3 | 45.1 | 0.00 | 0.58 | 0.58 | 90 | 982.9 |
| 20260504004530 | 6 | 46 | 12.9 | 45.1 | 0.00 | 0.58 | 0.58 | 89 | 984.5 |
| 20260504003029 | 6 | 69 | 25.7 | 59.5 | 0.05 | 0.58 | 0.58 | 89 | 984.3 |
| 20260504001527 | 6 | 78 | 27.4 | 45.1 | 0.10 | 0.58 | 0.58 | 91 | 984.7 |
| 20260504000023 | 5 | 49 | 11.3 | 45.1 | 0.13 | 0.58 | 0.58 | 91 | 986.0 |
| 20260503234535 | 5 | 38 | 17.7 | 41.8 | 0.13 | 0.58 | 0.58 | 92 | 986.5 |
| 20260503233019 | 5 | 103 | 11.3 | 29.0 | 0.08 | 0.53 | 0.53 | 92 | 987.5 |
| 20260503231518 | 5 | 41 | 17.7 | 33.8 | 0.05 | 0.48 | 0.48 | 92 | 988.5 |
| 20260503230017 | 4 | 120 | 11.3 | 19.3 | 0.08 | 0.46 | 0.46 | 92 | 989.5 |
| 20260503224513 | 4 | 53 | 14.5 | 37.0 | 0.15 | 0.46 | 0.46 | 92 | 990.7 |
| 20260503223009 | 4 | 9 | 3.2 | 24.1 | 0.18 | 0.46 | 0.46 | 93 | 991.9 |
| 20260503221505 | 4 | 346 | 6.4 | 20.9 | 0.15 | 0.43 | 0.43 | 93 | 992.9 |
| 20260503220005 | 4 | 32 | 3.2 | 11.3 | 0.15 | 0.38 | 0.38 | 93 | 993.7 |
| 20260503214502 | 4 | 36 | 4.8 | 19.3 | 0.10 | 0.30 | 0.30 | 92 | 994.1 |
| 20260503213111 | 4 | 53 | 16.1 | 33.8 | 0.08 | 0.28 | 0.28 | 91 | 994.3 |
| 20260503211558 | 5 | 97 | 6.4 | 25.7 | 0.08 | 0.25 | 0.25 | 90 | 994.7 |
| 20260503210103 | 6 | 59 | 12.9 | 32.2 | 0.08 | 0.23 | 0.23 | 89 | 995.4 |
| 20260503204556 | 6 | 360 | 11.3 | 27.4 | 0.10 | 0.20 | 0.20 | 89 | 995.6 |
| 20260503203102 | 6 | 339 | 8.0 | 30.6 | 0.15 | 0.20 | 0.20 | 90 | 995.6 |
| 20260503201552 | 6 | 69 | 11.3 | 32.2 | 0.13 | 0.18 | 0.18 | 90 | 997.4 |
| 20260503200052 | 6 | 52 | 6.4 | 27.4 | 0.10 | 0.15 | 0.15 | 89 | 997.6 |
| 20260503194545 | 6 | 22 | 11.3 | 30.6 | 0.10 | 0.10 | 0.10 | 86 | 998.6 |
| 20260503193049 | 6 | 355 | 17.7 | 37.0 | 0.05 | 0.05 | 0.05 | 85 | 998.5 |
| 20260503191541 | 6 | 34 | 8.0 | 19.3 | 0.05 | 0.05 | 0.05 | 83 | 1000.4 |
| 20260503190037 | 7 | 92 | 9.7 | 22.5 | 0.03 | 0.03 | 0.03 | 78 | 1001.9 |
| 20260503184534 | 7 | 72 | 14.5 | 30.6 | 0.00 | 0.00 | 0.00 | 71 | 1002.6 |
| 20260503183050 | 8 | 60 | 12.9 | 25.7 | 0.00 | 0.00 | 0.00 | 65 | 1003.1 |
| 20260503181529 | 9 | 86 | 6.4 | 12.9 | 0.00 | 0.00 | 0.00 | 56 | 1004.2 |
| 20260503180026 | 10 | 91 | 4.8 | 19.3 | 0.00 | 0.00 | 0.00 | 54 | 1004.6 |
| 20260503174524 | 10 | 88 | 6.4 | 19.3 | 0.00 | 0.00 | 0.00 | 53 | 1005.1 |
| 20260503173024 | 10 | 31 | 8.0 | 17.7 | 0.00 | 0.00 | 0.00 | 57 | 1005.3 |
| 20260503171521 | 10 | 82 | 8.0 | 20.9 | 0.00 | 0.00 | 0.00 | 54 | 1006.2 |